STARLINK-33575 (62760 NORAD) Tracking and Keplerian Element Data

This shows tracking and keplerian element data for the satellite.

Feedback or suggestion? Click here.




ElementValue
Catalog62760
NameSTARLINK-33575
Epoch Orbit5155
Epoch Day354.22449372
Epoch Year2025
RAAN331.6097
Inclination53.1609
Eccentricity0.0001192
Argument of Perigee94.4637
Mean Anonmoly265.65
Mean Motion15.30203324
Decay Rate0.00020712
L11 62760U 25015C 25354.22449372 .00020712 00000+0 70940-3 0 9990
L22 62760 53.1609 331.6097 0001192 94.4637 265.6500 15.30203324 51555



Live tracking and technical data element details for STARLINK-33575 (NORAD 62760). STARLINK-33575 can be tracked NOW for your location showing map with azimuth and elevation plus other details from your city location.







IsCatalogInMostPopularTable: catalog: 62760, numindb: 201
Update: records affected: 1



GetName: 62760 STARLINK-33575

Hit Count: updated at: Fri, 16 Jan 2026 09:16:57 GMT